Regional Weather Roundup
Issued by NWS

Home | Current Version | Previous Version | Graphics & Text | Print | Product List | Glossary On
Versions: 1 2 3 4 5 6 7 8 9 10 11 12 13 14 15 16 17 18 19 20 21 22 23 24 25 26 27 28 29 30 31 32 33 34 35 36 37 38 39 40 41 42 43 44 45 46 47 48 49 50
000
ASUS43 KMPX 261210
RWRMN
WEATHER ROUNDUP FOR MINNESOTA
NATIONAL WEATHER SERVICE TWIN CITIES/CHANHASSEN MN
700 AM CDT FRI AUG 26 2016


NOTE: "FAIR" INDICATES FEW OR NO CLOUDS BELOW 12,000 FEET WITH NO
SIGNIFICANT WEATHER AND/OR OBSTRUCTIONS TO VISIBILITY. N/A MEANS
CURRENT SKY AND/OR WEATHER CONDITIONS ARE NOT AVAILABLE.

MNZ060>063-068>070-261300-
   Twin Cities Metro

CITY           SKY/WX    TMP DP  RH WIND       PRES   REMARKS
TWIN CITIES    PTCLDY    57  53  86 SW3       30.17R
6HR MIN TEMP:  57; 6HR MAX TEMP:  61;

ST PAUL        CLEAR     57  54  89 CALM      30.17R
CRYSTAL        CLEAR     53  50  89 CALM      30.15R
BLAINE         PTCLDY    55  55 100 CALM      30.16R
LAKEVILLE      CLEAR     52  52 100 CALM      30.17R
EDEN PRAIRIE   CLEAR     55  53  93 S5        30.16R
6HR MIN TEMP:  54; 6HR MAX TEMP:  58;

LAKEVILLE      CLEAR     52  52 100 CALM      30.17R
SOUTH ST PAUL  CLEAR     56  55  96 CALM      30.17R
LAKE ELMO      FAIR      52  52 100 CALM      30.17R
$$
MNZ001>005-007-008-013>017-022>024-027-028-261300-
   Northwest Minnesota

CITY           SKY/WX    TMP DP  RH WIND       PRES   REMARKS
BEMIDJI        CLEAR     47  46  98 W3        30.11S
HALLOCK        PTCLDY    46  45  93 SE7       30.06S
ROSEAU         CLEAR     43  39  87 S5        30.08R FOG
WARROAD        CLEAR     46  43  87 S5        30.08S
THIEF RVR FALL CLEAR     47  46  97 S5        30.10S
CROOKSTON      CLEAR     46  45  93 SE7       30.10S
FOSSTON        CLEAR     46  46 100 S6        30.11F
DETROIT LAKES  CLEAR     54  50  87 SW3       30.14R
MOORHEAD       CLEAR     48  46  93 S5        30.13R
PARK RAPIDS    CLEAR     51  48  89 CALM      30.13R
MAHNOMEN       FAIR      48  47  94 S6        30.11S
$$
MNZ006-009>011-018-025>026-261300-
   North Central Minnesota

CITY           SKY/WX    TMP DP  RH WIND       PRES   REMARKS
BAUDETTE       CLEAR     46  45  96 CALM      30.08R
FLAG ISLAND    CLEAR     55  48  76 CALM      30.06R
INTL FALLS     CLEAR     41  40  96 CALM      30.10R
6HR MIN TEMP:  39; 6HR MAX TEMP:  47;

WASKISH        PTCLDY    48  48 100 CALM      30.10S
BIG FORK       CLEAR     43  43 100 CALM      30.12S
LONGVILLE      MOCLDY    46  46 100 CALM      30.13S
GRAND RAPIDS   CLEAR     48  46  93 CALM      30.15R FOG
CRANE LAKE     CLEAR     41  39  93 CALM      30.13R
ORR            CLEAR     48  46  93 CALM      30.10R
COOK           FOG       46  46 100 CALM      30.13R VSB 1/4
WALKER         FAIR      48  47  97 SW3       30.12S
$$
MNZ012-019>021-037-261300-
   Northeast Minnesota

CITY           SKY/WX    TMP DP  RH WIND       PRES   REMARKS
DULUTH         PTCLDY    53  51  93 NW6       30.13R
6HR MIN TEMP:  53; 6HR MAX TEMP:  58;

ELY            CLOUDY    48  46  93 CALM      30.13R FOG
HIBBING        FOG       46  46 100 CALM      30.13S VSB 1/2
EVELETH        CLEAR     53  51  95 W5        30.14R
DULUTH HARBOR  PTCLDY    57  54  88 SW7       30.13R
TWO HARBORS    PTCLDY    57  54  88 CALM      30.11R
SILVER BAY     CLEAR     55  52  88 NW3       30.10S
GRAND MARAIS     N/A     56  51  84 CALM      30.09R
G MARAIS ARPRT MOCLDY    52  45  76 NW5       30.10R
$$
MNZ029>031-032-039>041-046>048-054>057-064-261300-
   West Central Minnesota

CITY           SKY/WX    TMP DP  RH WIND       PRES   REMARKS
FERGUS FALLS   CLEAR     50  50 100 S3        30.16S FOG
WHEATON        CLEAR     50  48  93 CALM      30.16S
MORRIS         FOG       48  46  93 CALM      30.15S VSB 3/4
ALEXANDRIA     CLEAR     51  50  96 CALM      30.17R
ELBOW LAKE     FAIR      49  49 100 S7        30.16R
GLENWOOD       CLEAR     50  50 100 SW3       30.17S FOG
APPLETON       CLEAR     48  46  93 CALM      30.16R FOG
BENSON         FOG       45  43  93 CALM      30.17R VSB 1/4
ORTONVILLE     CLEAR     50  46  87 CALM      30.16R
MADISON        CLEAR     50  48  93 CALM      30.17R FOG
WILLMAR        MOCLDY    48  46  93 CALM      30.18S FOG
$$
MNZ033>034-036-042>043-049>051-058-059-261300-
   Central Minnesota

CITY           SKY/WX    TMP DP  RH WIND       PRES   REMARKS
ST CLOUD       CLEAR     49  49 100 CALM      30.15S FOG
6HR MIN TEMP:  48; 6HR MAX TEMP:  57;

SAUK CENTRE    FOG       48  48 100 CALM      30.16S VSB 1/2
PAYNESVILLE    FOG       47  47 100 CALM      30.17S VSB 1/4
AITKIN         FOG       48  45  87 CALM      30.14R VSB 1/2
PINE RIVER     CLEAR     46  46 100 CALM      30.17R
BRAINERD       CLEAR     49  49 100 S6        30.15R FOG
STAPLES        CLEAR     48  48 100 CALM      30.14S
LONG PRAIRIE   FAIR      46  46 100 CALM      30.16S FOG
LITTLE FALLS   FOG       45  45 100 CALM      30.16S VSB 3/4
LITCHFIELD     CLEAR     55  55 100 CALM      30.17S
BUFFALO        CLEAR     52  50  93 CALM      30.17R
MAPLE LAKE     CLEAR     54  53  97 CALM      30.17S FOG
HUTCHINSON     PTCLDY    51  51 100 CALM      30.18R FOG
$$
MNZ037-044-045-052-053-261300-
   East Central Minnesota

CITY           SKY/WX    TMP DP  RH WIND       PRES   REMARKS
PRINCETON        N/A     48  46  93 CALM      30.16R
MORA           CLEAR     50  50 100 CALM      30.17R
CAMBRIDGE      CLEAR     52  48  87 CALM      30.13S FOG
RUSH CITY      PTCLDY    51  50  96 CALM      30.15R
MOOSE LAKE     CLEAR     50  46  87 CALM      30.13R
HINCKLEY       FOG       50  50 100 CALM      30.15R VSB 1/2
CLOQUET        CLEAR     52  48  87 W5        30.14R
MCGREGOR         N/A     46  45  93 CALM      30.15R VSB 1/2
$$
MNZ071>073-080-081-089-090-097-098-261300-
   Southwest Minnesota

CITY           SKY/WX    TMP DP  RH WIND       PRES   REMARKS
MONTEVIDEO     CLEAR     52  50  93 CALM      30.18S
GRANITE FALLS  CLEAR     49  48  97 CALM      30.19R
CANBY          CLEAR     52  50  92 CALM      30.18R
MARSHALL       CLEAR     49  48  97 SW5       30.18R
REDWOOD FALLS  CLEAR     51  48  89 CALM      30.18R
OLIVIA         CLEAR     50  46  87 CALM      30.17R FOG
PIPESTONE      CLOUDY    52  48  87 CALM      30.19R
WINDOM         CLOUDY    52  50  93 CALM      30.20R
WORTHINGTON    CLOUDY    50  49  96 CALM      30.20R
JACKSON        PTCLDY    50  48  93 CALM      30.20R FOG
TRACY          CLOUDY    53  51  92 S5        30.19R
SLAYTON        CLOUDY    46  46 100 CALM      30.20R
$$
MNZ065>067-074>077-082>085-091>093-261300-
   South Central Minnesota

CITY           SKY/WX    TMP DP  RH WIND       PRES   REMARKS
MANKATO        CLOUDY    55  50  82 CALM      30.18R
NEW ULM          N/A     52  50  93 CALM      30.18R
FAIRMONT       CLOUDY    52  51  97 CALM      30.20R
GLENCOE        CLEAR     53  54 100 CALM      30.17R
FARIBAULT      CLEAR     52  52 100 CALM      30.18S FOG
OWATONNA         N/A     52  50  93 CALM      30.19R FOG
WASECA         FOG       52  50  93 CALM      30.20R VSB 1/4
ALBERT LEA     CLEAR     54  52  94 CALM      30.19R FOG
$$
MNZ078>079-086>088-094>096-261300-
   Southeast Minnesota

CITY           SKY/WX    TMP DP  RH WIND       PRES   REMARKS
ROCHESTER      CLEAR     53  52  96 W3        30.19R
6HR MIN TEMP:  53; 6HR MAX TEMP:  58;

RED WING       CLEAR     54  52  94 CALM      30.16R FOG
STANTON        CLEAR     52  50  93 CALM      30.17R
DODGE CENTER   CLEAR     54  52  94 CALM      30.19R
WINONA         CLEAR     55  55 100 CALM      30.18R
AUSTIN         CLEAR     52  50  93 CALM      30.19R
PRESTON        CLEAR     55  51  86 W3        30.19S
$$
ABBREVIATIONS USED IN REMARKS
   TC - TEMPERATURES IN CELSIUS
  WCI - WIND CHILL INDEX
   HX - HEAT INDEX
  VSB - VISIBILITY
$$




USA.gov is the U.S. government's official web portal to all federal, state and local government web resources and services.